This is the latest recevied weather packets stored in our database for station/object DL1GHN-6. If no packets are shown the sender has not sent any weather packets the latest 10 day(s).
| Time | Temp. | Humidity | Pressure | Rain* | Wind** | Luminosity | Snow |
|---|---|---|---|---|---|---|---|
| 1777475433 | 23.89° C | 26% | 1018 hPa | 0 mm | - | 466 W/m² | - |
| 1777475133 | 23.89° C | 31% | 1018 hPa | 0 mm | - | 475 W/m² | - |
| 1777474833 | 23.89° C | 28% | 1018.1 hPa | 0 mm | - | 494 W/m² | - |
| 1777474533 | 23.89° C | 26% | 1018 hPa | 0 mm | - | 510 W/m² | - |
| 1777474232 | 23.89° C | 29% | 1017.9 hPa | 0 mm | - | 522 W/m² | - |
| 1777473933 | 23.89° C | 25% | 1017.9 hPa | 0 mm | - | 534 W/m² | - |
| 1777473632 | 24.44° C | 25% | 1018 hPa | 0 mm | - | 545 W/m² | - |
| 1777473332 | 24.44° C | 26% | 1018.1 hPa | 0 mm | - | 557 W/m² | - |
| 1777473033 | 24.44° C | 27% | 1018 hPa | 0 mm | - | 571 W/m² | - |
| 1777472733 | 24.44° C | 27% | 1017.9 hPa | 0 mm | - | 587 W/m² | - |
| 1777472434 | 24.44° C | 26% | 1018.1 hPa | 0 mm | - | 596 W/m² | - |
| 1777472133 | 24.44° C | 30% | 1017.9 hPa | 0 mm | - | 608 W/m² | - |
| 1777471832 | 24.44° C | 25% | 1017.9 hPa | 0 mm | - | 621 W/m² | - |
| 1777471533 | 24.44° C | 31% | 1018 hPa | 0 mm | - | 633 W/m² | - |
| 1777471232 | 23.89° C | 27% | 1018 hPa | 0 mm | - | 643 W/m² | - |
| 1777470932 | 24.44° C | 27% | 1018 hPa | 0 mm | - | 652 W/m² | - |
| 1777470632 | 24.44° C | 30% | 1018 hPa | 0 mm | - | 657 W/m² | - |
| 1777470332 | 23.89° C | 29% | 1018.1 hPa | 0 mm | - | 671 W/m² | - |
| 1777470032 | 23.89° C | 26% | 1018 hPa | 0 mm | - | 679 W/m² | - |
| 1777469733 | 24.44° C | 26% | 1018.1 hPa | 0 mm | - | 691 W/m² | - |
| 1777469432 | 24.44° C | 26% | 1018 hPa | 0 mm | - | 587 W/m² | - |
| 1777469133 | 24.44° C | 26% | 1018.2 hPa | 0 mm | - | 707 W/m² | - |
| 1777468833 | 24.44° C | 31% | 1018.2 hPa | 0 mm | - | 707 W/m² | - |
| 1777468533 | 24.44° C | 26% | 1018.2 hPa | 0 mm | - | 712 W/m² | - |
| 1777468233 | 24.44° C | 30% | 1018.2 hPa | 0 mm | - | 717 W/m² | - |
* Rain latest hour (hover to see other rain measurements)
** Current wind speed in m/s (hover to see current wind gust speed)